Flag for United Kingdom Weather past 2 weeks in Stornoway, Scotland, United Kingdom

Now
36 °F

Scattered showers. Passing clouds.


Feels Like: 27 °F
Forecast: N/A
Wind: 12 mph from Northeast

Location: Stornoway

Current Time: Feb 1, 2015 at 5:19:08 PM

Latest Report: Feb 1, 2015 at 4:50 PM


Visibility: N/A

Pressure: 29.74 "Hg

Humidity: 81%

Dew point: 30 °F

Location of StornowayLocation

Historic Weather in Stornoway — Graph

°F

Stornoway temperature yesterday

Maximum temperature yesterday: 39 °F (at 1:20 PM)
Minimum temperature yesterday: 34 °F (at 9:20 AM)
Average temperature yesterday: 37 °F

Past Weeks' High & Low Weather Summary

 TemperatureHumidityPressure
High52 °F (Jan 25, 12:50 PM)94% (Jan 25, 11:50 AM)30.18 "Hg (Jan 25, 11:50 AM)
Low27 °F (Jan 19, 3:20 AM)61% (Jan 18, 12:50 PM)28.71 "Hg (Jan 29, 6:50 AM)
Average39 °F81%29.63 "Hg
* Reported Jan 17 4:20 PM — Feb 1 4:20 PM, Stornoway, Weather by CustomWeather, © 2014

Note: Actual official high and low records may vary slightly from our data, if they occured in-between our weather recording intervals... More about our weather records

Advertising

Stornoway weather history for previous 24 hours

 ConditionsComfort  
Time TempWeatherWind HumidityBarometerVisibility
4:20 PM
Feb 1
36 °FScattered showers. Passing clouds.7 mph81%29.74 "HgN/A
3:50 PM36 °FScattered showers. Passing clouds.13 mph81%29.74 "HgN/A
3:20 PM36 °FScattered showers. Passing clouds.10 mph81%29.71 "HgN/A
2:50 PM36 °FScattered showers. Passing clouds.20 mph87%29.74 "HgN/A
2:20 PM37 °FScattered showers. Passing clouds.6 mph81%29.71 "HgN/A
1:50 PM36 °FSnow flurries. Partly sunny.20 mph81%29.74 "HgN/A
1:20 PM37 °FScattered showers. Passing clouds.8 mph81%29.74 "HgN/A
12:50 PM37 °FSnow flurries. Partly sunny.24 mph81%29.74 "HgN/A
12:20 PM37 °FScattered showers. Passing clouds.12 mph81%29.74 "HgN/A
11:50 AM36 °FMixture of precip. Passing clouds.16 mph81%29.74 "HgN/A
11:20 AM36 °FScattered showers. Passing clouds.14 mph81%29.74 "HgN/A
10:50 AM34 °FSprinkles. Passing clouds.8 mph81%29.74 "HgN/A
10:20 AM36 °FPassing clouds.7 mph81%29.74 "HgN/A
9:50 AM34 °FPassing clouds.13 mph87%29.74 "HgN/A
9:20 AM32 °FScattered clouds.7 mph87%29.74 "HgN/A
8:50 AM34 °FChilly.10 mph81%29.74 "HgN/A
8:20 AM34 °FSnow flurries. Passing clouds.17 mph87%29.74 "Hg3 mi
7:50 AM36 °FPassing clouds.14 mph81%29.74 "HgN/A
7:20 AM36 °FSprinkles. Passing clouds.14 mph75%29.74 "Hg6 mi
6:50 AM36 °FPassing clouds.17 mph75%29.74 "HgN/A
6:20 AM37 °FChilly.18 mph70%29.71 "HgN/A
5:50 AM36 °FChilly.15 mph75%29.71 "Hg6 mi
5:20 AM36 °FChilly.23 mph70%29.71 "HgN/A
4:50 AM36 °FChilly.24 mph65%29.74 "HgN/A
4:20 AM36 °FChilly.21 mph81%29.74 "Hg6 mi
3:50 AM36 °FChilly.28 mph75%29.71 "HgN/A
3:20 AM34 °FSprinkles. Passing clouds.18 mph81%29.71 "Hg5 mi
2:50 AM36 °FChilly.21 mph75%29.71 "HgN/A
2:20 AM34 °FSprinkles. Passing clouds.28 mph87%29.71 "Hg2 mi
1:50 AM36 °FChilly.18 mph75%29.71 "HgN/A
1:20 AM36 °FSprinkles. Passing clouds.21 mph75%29.71 "HgN/A
12:50 AM36 °FPassing clouds.23 mph65%29.71 "HgN/A
12:20 AM36 °FPassing clouds.26 mph70%29.68 "HgN/A
11:50 PM
Jan 31
36 °FPassing clouds.28 mph70%29.68 "HgN/A
11:20 PM36 °FChilly.29 mph65%29.68 "HgN/A
10:50 PM36 °FChilly.30 mph75%29.65 "HgN/A
10:20 PM36 °FChilly.26 mph75%29.65 "HgN/A
9:50 PM36 °FSprinkles. Passing clouds.18 mph81%29.65 "Hg5 mi
9:20 PM36 °FSprinkles. Passing clouds.28 mph81%29.65 "Hg5 mi
8:50 PM37 °FPassing clouds.22 mph75%29.65 "HgN/A
8:20 PM37 °FPassing clouds.24 mph75%29.62 "HgN/A
7:50 PM37 °FChilly.25 mph70%29.62 "HgN/A
7:20 PM37 °FPassing clouds.26 mph75%29.59 "HgN/A
6:50 PM36 °FChilly.31 mph81%29.59 "HgN/A
6:20 PM36 °FChilly.25 mph81%29.56 "HgN/A
5:50 PM37 °FChilly.30 mph65%29.56 "HgN/A
5:20 PM36 °FPassing clouds.21 mph75%29.56 "HgN/A
Weather by CustomWeather, © 2014

See weather overviewHow to use our weather pages